Abbotsford, British Columbia

1:02 PM PDT on April 21, 2018 (GMT -0700)
Abbotsford

Weather History for CYXX - November, 2013

Change the Weather History Date:

Tuesday, November 19, 2013

  Actual Average Record
Temperature  
Mean Temperature 38 °F -  
Max Temperature 45 °F 44 °F 57 °F (2001)
Min Temperature 32 °F 33 °F 21 °F (1996)
Degree Days  
Heating Degree Days 26    
Moisture  
Dew Point 29 °F    
Average Humidity 68    
Maximum Humidity 100    
Minimum Humidity 25    
Precipitation  
Precipitation 0.59 in 0.29 in - ()
Sea Level Pressure  
Sea Level Pressure 29.80 in    
Wind  
Wind Speed 7 mph ()    
Max Wind Speed 13 mph    
Max Gust Speed 18 mph    
Visibility 10.2 miles    
Events Rain    
Averages and records for this station are not official NWS values.
T = Trace of Precipitation, MM = Missing Value Source: Averaged Metar Reports

Daily Weather History Graph

Daily Weather History Graph

Search for Another Location

Airport or City:

Astronomy

Nov. 19, 2013 Rise Set
Actual Time 7:25 AM PST 4:23 PM PST
Civil Twilight 6:50 AM PST 4:58 PM PST
Nautical Twilight 6:11 AM PST 5:37 PM PST
Astronomical Twilight 5:34 AM PST 6:15 PM PST
Moon 6:17 PM PST (11/19) 9:11 AM PST (11/19)
Length of Visible Light 10h 08m
Length of Day
8h 57m
Waning Gibbous, 95% of the Moon is Illuminated
Nov 19
Waning Gibbous
Nov 25
Last Quarter
Dec 2
New
Dec 9
First Quarter
Dec 17
Full

Hourly Weather History & Observations

Time (PST) Temp. Windchill Dew Point Humidity Pressure Visibility Wind Dir Wind Speed Gust Speed Precip Events Conditions
12:00 AM 42.8 °F 40.1 °F 41.0 °F 93% 29.56 in 2.2 mi West 4.6 mph - N/A Rain Rain
12:24 AM 42.8 °F 39.3 °F 41.0 °F 93% 29.57 in 2.5 mi South 5.8 mph - N/A Rain Rain
1:00 AM 42.8 °F 38.0 °F 41.0 °F 93% 29.57 in 2.0 mi South 8.1 mph - N/A Rain Light Rain
2:00 AM 42.8 °F 38.0 °F 41.0 °F 93% 29.59 in 2.0 mi SSW 8.1 mph - N/A Rain Light Rain
2:44 AM 42.8 °F 37.5 °F 41.0 °F 93% 29.62 in 2.5 mi South 9.2 mph - N/A   Overcast
3:00 AM 42.8 °F 37.5 °F 41.0 °F 93% 29.62 in 2.5 mi South 9.2 mph - N/A   Light Drizzle
4:00 AM 42 °F - 41 °F 96% 29.64 in 7 mi South 8.1 mph - - Rain Light Drizzle
4:00 AM 42.8 °F 37.5 °F 41.0 °F 93% 29.64 in 7.0 mi South 9.2 mph - N/A   Overcast
5:00 AM 42.8 °F 38.6 °F 41.0 °F 93% 29.66 in 8.0 mi South 6.9 mph - N/A   Overcast
6:00 AM 41.0 °F 36.4 °F 41.0 °F 100% 29.68 in 7.0 mi SSW 6.9 mph - N/A   Mostly Cloudy
6:39 AM 41.0 °F 35.2 °F 41.0 °F 100% 29.70 in 7.0 mi South 9.2 mph - N/A Rain Light Rain Showers
6:51 AM 41.0 °F 35.2 °F 39.2 °F 93% 29.71 in 3.0 mi SSW 9.2 mph - N/A Rain Heavy Rain Showers
7:00 AM 41.0 °F 36.4 °F 39.2 °F 93% 29.71 in 7.0 mi SSW 6.9 mph - N/A Rain Light Rain Showers
8:00 AM 41.0 °F 34.7 °F 37.4 °F 87% 29.75 in 8.0 mi South 10.4 mph - N/A Rain Light Rain Showers
9:00 AM 41.0 °F 34.3 °F 37.4 °F 87% 29.77 in 10.0 mi SSW 11.5 mph - N/A Rain Light Rain Showers
9:48 AM 42.8 °F 37.0 °F 35.6 °F 76% 29.78 in 10.0 mi West 10.4 mph - N/A   Mostly Cloudy
10:00 AM 44 °F - 33 °F 54% 29.79 in 10 mi WSW 10.4 mph - - Rain Light Rain Showers
10:00 AM 42.8 °F 36.6 °F 33.8 °F 70% 29.79 in 10.0 mi WSW 11.5 mph 18.4 mph N/A   Mostly Cloudy
11:00 AM 42.8 °F 36.2 °F 30.2 °F 61% 29.82 in 10.0 mi SW 12.7 mph 18.4 mph N/A   Mostly Cloudy
12:00 PM 42.8 °F 36.6 °F 28.4 °F 57% 29.84 in 15.0 mi WSW 11.5 mph - N/A   Mostly Cloudy
1:00 PM 42.8 °F 37.5 °F 21.2 °F 42% 29.85 in 20.0 mi West 9.2 mph 17.3 mph N/A   Scattered Clouds
1:08 PM 42.8 °F 36.6 °F 19.4 °F 39% 29.86 in 20.0 mi West 11.5 mph - N/A   Scattered Clouds
2:00 PM 42.8 °F 38.6 °F 21.2 °F 42% 29.87 in 25.0 mi West 6.9 mph - N/A   Partly Cloudy
3:00 PM 41.0 °F 35.2 °F 14.0 °F 33% 29.88 in 25.0 mi West 9.2 mph - N/A   Scattered Clouds
4:00 PM 40 °F - 17 °F 25% 29.91 in 25 mi West 9.2 mph - -   Mostly Cloudy
4:00 PM 39.2 °F 35.0 °F 15.8 °F 39% 29.91 in 25.0 mi WSW 5.8 mph - N/A   Mostly Cloudy
4:49 PM 39.2 °F 35.0 °F 15.8 °F 39% 29.91 in 20.0 mi WSW 5.8 mph - N/A   Mostly Cloudy
5:00 PM 35.6 °F 31.7 °F 17.6 °F 48% 29.92 in 15.0 mi SSE 4.6 mph - N/A   Mostly Cloudy
6:00 PM 37.4 °F 32.1 °F 15.8 °F 41% 29.93 in 15.0 mi Variable 6.9 mph 18.4 mph N/A   Scattered Clouds
6:40 PM 35.6 °F 29.9 °F 14.0 °F 41% 29.95 in 15.0 mi SSW 6.9 mph - N/A   Partly Cloudy
7:00 PM 35.6 °F 29.2 °F 15.8 °F 44% 29.95 in 15.0 mi SSW 8.1 mph - N/A   Clear
8:00 PM 35.6 °F 28.6 °F 17.6 °F 48% 29.97 in 15.0 mi South 9.2 mph - N/A   Partly Cloudy
9:00 PM 32.0 °F 25.6 °F 21.2 °F 64% 30.00 in 15.0 mi SE 6.9 mph - N/A   Partly Cloudy
10:00 PM 32 °F - 22 °F 56% 30.04 in 15 mi NE 6.9 mph - -   Partly Cloudy
10:00 PM 32.0 °F 25.6 °F 21.2 °F 64% 30.04 in 15.0 mi NE 6.9 mph - N/A   Scattered Clouds
11:00 PM 32.0 °F 25.6 °F 23.0 °F 69% 30.08 in 15.0 mi NE 6.9 mph - N/A   Partly Cloudy